Year,Month,Day,Hour,Minute,Value (Times are PST for temperature in C)
2019,03,27,00,00,3.70
2019,03,27,00,01,3.70
2019,03,27,00,02,3.70
2019,03,27,00,03,3.80
2019,03,27,00,04,3.80
2019,03,27,00,05,3.80
2019,03,27,00,06,3.80
2019,03,27,00,07,3.90
2019,03,27,00,08,3.90
2019,03,27,00,09,3.90
2019,03,27,00,10,3.90
2019,03,27,00,11,4.00
2019,03,27,00,12,4.00
2019,03,27,00,13,4.10
2019,03,27,00,14,4.10
2019,03,27,00,15,4.10
2019,03,27,00,16,4.10
2019,03,27,00,17,4.10
2019,03,27,00,18,4.10
2019,03,27,00,19,4.10
2019,03,27,00,20,4.10
2019,03,27,00,21,4.10
2019,03,27,00,22,4.00
2019,03,27,00,23,4.00
2019,03,27,00,24,3.90
2019,03,27,00,25,3.90
2019,03,27,00,26,3.90
2019,03,27,00,27,3.90
2019,03,27,00,28,3.90
2019,03,27,00,29,3.90
2019,03,27,00,30,3.90
2019,03,27,00,31,3.90
2019,03,27,00,32,3.90
2019,03,27,00,33,3.90
2019,03,27,00,34,3.80
2019,03,27,00,35,3.80
2019,03,27,00,36,3.80
2019,03,27,00,37,3.80
2019,03,27,00,38,3.80
2019,03,27,00,39,3.70
2019,03,27,00,40,3.70
2019,03,27,00,41,3.70
2019,03,27,00,42,3.70
2019,03,27,00,43,3.70
2019,03,27,00,44,3.80
2019,03,27,00,45,3.80
2019,03,27,00,46,3.80
2019,03,27,00,47,3.80
2019,03,27,00,48,3.80
2019,03,27,00,49,3.80
2019,03,27,00,50,3.80
2019,03,27,00,51,3.90
2019,03,27,00,52,3.90
2019,03,27,00,53,3.90
2019,03,27,00,54,3.90
2019,03,27,00,55,4.00
2019,03,27,00,56,4.00
2019,03,27,00,57,4.00
2019,03,27,00,58,4.00
2019,03,27,00,59,4.00
2019,03,27,01,00,4.00
2019,03,27,01,01,3.90
2019,03,27,01,02,3.80
2019,03,27,01,03,3.80
2019,03,27,01,04,3.70
2019,03,27,01,05,3.70
2019,03,27,01,06,3.60
2019,03,27,01,07,3.50
2019,03,27,01,08,3.50
2019,03,27,01,09,3.40
2019,03,27,01,10,3.40
2019,03,27,01,11,3.30
2019,03,27,01,12,3.30
2019,03,27,01,13,3.30
2019,03,27,01,14,3.30
2019,03,27,01,15,3.30
2019,03,27,01,16,3.30
2019,03,27,01,17,3.30
2019,03,27,01,18,3.30
2019,03,27,01,19,3.30
2019,03,27,01,20,3.30
2019,03,27,01,21,3.30
2019,03,27,01,22,3.30
2019,03,27,01,23,3.20
2019,03,27,01,24,3.20
2019,03,27,01,25,3.20
2019,03,27,01,26,3.20
2019,03,27,01,27,3.20
2019,03,27,01,28,3.20
2019,03,27,01,29,3.20
2019,03,27,01,30,3.10
2019,03,27,01,31,3.10
2019,03,27,01,32,3.10
2019,03,27,01,33,3.10
2019,03,27,01,34,3.00
2019,03,27,01,35,3.00
2019,03,27,01,36,3.00
2019,03,27,01,37,2.90
2019,03,27,01,38,2.90
2019,03,27,01,39,3.00
2019,03,27,01,40,3.00
2019,03,27,01,41,3.00
2019,03,27,01,42,3.10
2019,03,27,01,43,3.10
2019,03,27,01,44,3.20
2019,03,27,01,45,3.20
2019,03,27,01,46,3.20
2019,03,27,01,47,3.20
2019,03,27,01,48,3.20
2019,03,27,01,49,3.20
2019,03,27,01,50,3.20
2019,03,27,01,51,3.20
2019,03,27,01,52,3.20
2019,03,27,01,53,3.20
2019,03,27,01,54,3.20
2019,03,27,01,55,3.20
2019,03,27,01,56,3.20
2019,03,27,01,57,3.20
2019,03,27,01,58,3.30
2019,03,27,01,59,3.30
2019,03,27,02,00,3.30
2019,03,27,02,01,3.30
2019,03,27,02,02,3.30
2019,03,27,02,03,3.30
2019,03,27,02,04,3.30
2019,03,27,02,05,3.30
2019,03,27,02,06,3.30
2019,03,27,02,07,3.30
2019,03,27,02,08,3.30
2019,03,27,02,09,3.30
2019,03,27,02,10,3.30
2019,03,27,02,11,3.30
2019,03,27,02,12,3.30
2019,03,27,02,13,3.30
2019,03,27,02,14,3.30
2019,03,27,02,15,3.40
2019,03,27,02,16,3.40
2019,03,27,02,17,3.40
2019,03,27,02,18,3.40
2019,03,27,02,19,3.50
2019,03,27,02,20,3.60
2019,03,27,02,21,3.70
2019,03,27,02,22,3.80
2019,03,27,02,23,3.90
2019,03,27,02,24,3.90
2019,03,27,02,25,4.00
2019,03,27,02,26,4.10
2019,03,27,02,27,4.20
2019,03,27,02,28,4.20
2019,03,27,02,29,4.30
2019,03,27,02,30,4.30
2019,03,27,02,31,4.30
2019,03,27,02,32,4.40
2019,03,27,02,33,4.40
2019,03,27,02,34,4.40
2019,03,27,02,35,4.40
2019,03,27,02,36,4.40
2019,03,27,02,37,4.40
2019,03,27,02,38,4.40
2019,03,27,02,39,4.40
2019,03,27,02,40,4.30
2019,03,27,02,41,4.30
2019,03,27,02,42,4.30
2019,03,27,02,43,4.20
2019,03,27,02,44,4.10
2019,03,27,02,45,4.10
2019,03,27,02,46,4.00
2019,03,27,02,47,3.90
2019,03,27,02,48,3.90
2019,03,27,02,49,3.80
2019,03,27,02,50,3.70
2019,03,27,02,51,3.70
2019,03,27,02,52,3.70
2019,03,27,02,53,3.60
2019,03,27,02,54,3.60
2019,03,27,02,55,3.50
2019,03,27,02,56,3.50
2019,03,27,02,57,3.40
2019,03,27,02,58,3.40
2019,03,27,02,59,3.40
2019,03,27,03,00,3.40
2019,03,27,03,01,3.30
2019,03,27,03,02,3.30
2019,03,27,03,06,3.30
2019,03,27,03,07,3.30
2019,03,27,03,08,3.30
2019,03,27,03,09,3.30
2019,03,27,03,10,3.30
2019,03,27,03,11,3.40
2019,03,27,03,12,3.40
2019,03,27,03,13,3.40
2019,03,27,03,14,3.40
2019,03,27,03,15,3.30
2019,03,27,03,16,3.40
2019,03,27,03,17,3.40
2019,03,27,03,18,3.30
2019,03,27,03,19,3.30
2019,03,27,03,20,3.20
2019,03,27,03,21,3.10
2019,03,27,03,22,3.00
2019,03,27,03,23,2.90
2019,03,27,03,24,2.90
2019,03,27,03,25,2.80
2019,03,27,03,26,2.70
2019,03,27,03,27,2.70
2019,03,27,03,28,2.60
2019,03,27,03,29,2.50
2019,03,27,03,30,2.50
2019,03,27,03,31,2.40
2019,03,27,03,32,2.40
2019,03,27,03,33,2.40
2019,03,27,03,34,2.30
2019,03,27,03,35,2.30
2019,03,27,03,36,2.30
2019,03,27,03,37,2.30
2019,03,27,03,38,2.30
2019,03,27,03,39,2.30
2019,03,27,03,40,2.30
2019,03,27,03,41,2.30
2019,03,27,03,42,2.20
2019,03,27,03,43,2.30
2019,03,27,03,44,2.30
2019,03,27,03,45,2.30
2019,03,27,03,46,2.30
2019,03,27,03,47,2.30
2019,03,27,03,48,2.30
2019,03,27,03,49,2.20
2019,03,27,03,50,2.20
2019,03,27,03,51,2.20
2019,03,27,03,52,2.10
2019,03,27,03,53,2.10
2019,03,27,03,54,2.10
2019,03,27,03,55,2.00
2019,03,27,03,56,2.00
2019,03,27,03,57,2.00
2019,03,27,03,58,2.00
2019,03,27,03,59,2.00
2019,03,27,04,00,2.00
2019,03,27,04,01,2.00
2019,03,27,04,02,2.00
2019,03,27,04,03,2.00
2019,03,27,04,04,2.00
2019,03,27,04,05,2.10
2019,03,27,04,06,2.10
2019,03,27,04,07,2.10
2019,03,27,04,08,2.20
2019,03,27,04,09,2.20
2019,03,27,04,10,2.20
2019,03,27,04,11,2.20
2019,03,27,04,12,2.20
2019,03,27,04,13,2.20
2019,03,27,04,14,2.20
2019,03,27,04,15,2.30
2019,03,27,04,16,2.30
2019,03,27,04,17,2.40
2019,03,27,04,18,2.40
2019,03,27,04,19,2.50
2019,03,27,04,20,2.50
2019,03,27,04,21,2.50
2019,03,27,04,22,2.50
2019,03,27,04,23,2.50
2019,03,27,04,24,2.60
2019,03,27,04,25,2.60
2019,03,27,04,26,2.60
2019,03,27,04,27,2.60
2019,03,27,04,28,2.70
2019,03,27,04,29,2.70
2019,03,27,04,30,2.80
2019,03,27,04,31,2.80
2019,03,27,04,32,2.80
2019,03,27,04,33,2.80
2019,03,27,04,34,2.80
2019,03,27,04,35,2.70
2019,03,27,04,36,2.70
2019,03,27,04,37,2.60
2019,03,27,04,38,2.60
2019,03,27,04,39,2.50
2019,03,27,04,40,2.50
2019,03,27,04,41,2.40
2019,03,27,04,42,2.30
2019,03,27,04,43,2.30
2019,03,27,04,44,2.30
2019,03,27,04,45,2.30
2019,03,27,04,46,2.30
2019,03,27,04,47,2.20
2019,03,27,04,48,2.20
2019,03,27,04,49,2.20
2019,03,27,04,50,2.20
2019,03,27,04,51,2.20
2019,03,27,04,52,2.20
2019,03,27,04,53,2.20
2019,03,27,04,54,2.20
2019,03,27,04,55,2.10
2019,03,27,04,56,2.10
2019,03,27,04,57,2.10
2019,03,27,04,58,2.10
2019,03,27,04,59,2.10
2019,03,27,05,00,2.10
2019,03,27,05,01,2.10
2019,03,27,05,02,2.10
2019,03,27,05,03,2.00
2019,03,27,05,04,2.00
2019,03,27,05,05,2.00
2019,03,27,05,06,2.00
2019,03,27,05,07,1.90
2019,03,27,05,08,1.90
2019,03,27,05,09,1.80
2019,03,27,05,10,1.80
2019,03,27,05,11,1.80
2019,03,27,05,12,1.80
2019,03,27,05,13,1.80
2019,03,27,05,14,1.80
2019,03,27,05,15,1.80
2019,03,27,05,16,1.80
2019,03,27,05,17,1.80
2019,03,27,05,18,1.80
2019,03,27,05,19,1.80
2019,03,27,05,20,1.80
2019,03,27,05,21,1.80
2019,03,27,05,22,1.80
2019,03,27,05,23,1.80
2019,03,27,05,24,1.80
2019,03,27,05,25,1.80
2019,03,27,05,26,1.80
2019,03,27,05,27,1.90
2019,03,27,05,28,1.90
2019,03,27,05,29,1.90
2019,03,27,05,30,1.90
2019,03,27,05,31,1.90
2019,03,27,05,32,1.90
2019,03,27,05,33,1.90
2019,03,27,05,34,2.00
2019,03,27,05,35,2.00
2019,03,27,05,36,2.00
2019,03,27,05,37,2.00
2019,03,27,05,38,2.00
2019,03,27,05,39,2.00
2019,03,27,05,40,2.00
2019,03,27,05,41,2.00
2019,03,27,05,42,1.90
2019,03,27,05,43,1.90
2019,03,27,05,44,1.90
2019,03,27,05,45,1.90
2019,03,27,05,46,1.90
2019,03,27,05,47,1.90
2019,03,27,05,48,1.90
2019,03,27,05,49,1.80
2019,03,27,05,50,1.80
2019,03,27,05,51,1.80
2019,03,27,05,52,1.80
2019,03,27,05,53,1.80
2019,03,27,05,54,1.90
2019,03,27,05,55,1.90
2019,03,27,05,56,1.90
2019,03,27,05,57,2.00
2019,03,27,05,58,2.00
2019,03,27,05,59,2.10
2019,03,27,06,00,2.00
2019,03,27,06,01,2.00
2019,03,27,06,02,2.00
2019,03,27,06,03,2.00
2019,03,27,06,04,2.00
2019,03,27,06,05,2.00
2019,03,27,06,06,2.00
2019,03,27,06,07,2.00
2019,03,27,06,08,2.00
2019,03,27,06,09,2.00
2019,03,27,06,10,1.90
2019,03,27,06,11,1.90
2019,03,27,06,12,1.90
2019,03,27,06,13,1.80
2019,03,27,06,14,1.80
2019,03,27,06,15,1.80
2019,03,27,06,16,1.80
2019,03,27,06,17,1.80
2019,03,27,06,18,1.70
2019,03,27,06,19,1.70
2019,03,27,06,20,1.70
2019,03,27,06,21,1.60
2019,03,27,06,22,1.60
2019,03,27,06,23,1.60
2019,03,27,06,24,1.60
2019,03,27,06,25,1.50
2019,03,27,06,26,1.50
2019,03,27,06,27,1.50
2019,03,27,06,28,1.50
2019,03,27,06,29,1.50
2019,03,27,06,30,1.50
2019,03,27,06,31,1.50
2019,03,27,06,32,1.50
2019,03,27,06,33,1.50
2019,03,27,06,34,1.50
2019,03,27,06,35,1.40
2019,03,27,06,36,1.40
2019,03,27,06,37,1.40
2019,03,27,06,38,1.40
2019,03,27,06,39,1.40
2019,03,27,06,40,1.40
2019,03,27,06,41,1.50
2019,03,27,06,42,1.60
2019,03,27,06,43,1.60
2019,03,27,06,44,1.70
2019,03,27,06,45,1.70
2019,03,27,06,46,1.70
2019,03,27,06,47,1.70
2019,03,27,06,48,1.70
2019,03,27,06,49,1.70
2019,03,27,06,50,1.80
2019,03,27,06,51,1.80
2019,03,27,06,52,1.80
2019,03,27,06,53,1.80
2019,03,27,06,54,1.90
2019,03,27,06,55,1.90
2019,03,27,06,56,1.90
2019,03,27,06,57,1.90
2019,03,27,06,58,1.90
2019,03,27,06,59,2.00
2019,03,27,07,00,2.00
2019,03,27,07,01,2.00
2019,03,27,07,02,2.10
2019,03,27,07,03,2.10
2019,03,27,07,04,2.10
2019,03,27,07,05,2.10
2019,03,27,07,06,2.10
2019,03,27,07,07,2.10
2019,03,27,07,08,2.10
2019,03,27,07,09,2.10
2019,03,27,07,10,2.10
2019,03,27,07,11,2.10
2019,03,27,07,12,2.10
2019,03,27,07,13,2.10
2019,03,27,07,14,2.10
2019,03,27,07,15,2.10
2019,03,27,07,16,2.10
2019,03,27,07,17,2.10
2019,03,27,07,18,2.20
2019,03,27,07,19,2.20
2019,03,27,07,20,2.10
2019,03,27,07,21,2.10
2019,03,27,07,22,2.10
2019,03,27,07,23,2.10
2019,03,27,07,24,2.10
2019,03,27,07,25,2.10
2019,03,27,07,26,2.10
2019,03,27,07,27,2.10
2019,03,27,07,28,2.20
2019,03,27,07,29,2.20
2019,03,27,07,30,2.20
2019,03,27,07,31,2.20
2019,03,27,07,32,2.20
2019,03,27,07,33,2.30
2019,03,27,07,34,2.30
2019,03,27,07,35,2.30
2019,03,27,07,36,2.30
2019,03,27,07,37,2.30
2019,03,27,07,38,2.40
2019,03,27,07,39,2.40
2019,03,27,07,40,2.40
2019,03,27,07,41,2.40
2019,03,27,07,42,2.40
2019,03,27,07,43,2.50
2019,03,27,07,44,2.50
2019,03,27,07,45,2.60
2019,03,27,07,46,2.60
2019,03,27,07,47,2.60
2019,03,27,07,48,2.70
2019,03,27,07,49,2.70
2019,03,27,07,50,2.70
2019,03,27,07,51,2.80
2019,03,27,07,52,3.00
2019,03,27,07,53,3.10
2019,03,27,07,54,3.20
2019,03,27,07,55,3.30
2019,03,27,07,56,3.30
2019,03,27,07,57,3.40
2019,03,27,07,58,3.50
2019,03,27,07,59,3.50
2019,03,27,08,00,3.60
2019,03,27,08,01,3.60
2019,03,27,08,02,3.60
2019,03,27,08,03,3.70
2019,03,27,08,04,3.70
2019,03,27,08,05,3.70
2019,03,27,08,06,3.70
2019,03,27,08,07,3.70
2019,03,27,08,08,3.70
2019,03,27,08,09,3.70
2019,03,27,08,10,3.80
2019,03,27,08,11,3.80
2019,03,27,08,12,3.80
2019,03,27,08,13,3.80
2019,03,27,08,14,3.90
2019,03,27,08,15,3.90
2019,03,27,08,16,3.90
2019,03,27,08,17,4.00
2019,03,27,08,18,4.00
2019,03,27,08,19,4.10
2019,03,27,08,20,4.10
2019,03,27,08,21,4.20
2019,03,27,08,22,4.20
2019,03,27,08,23,4.20
2019,03,27,08,24,4.30
2019,03,27,08,25,4.30
2019,03,27,08,26,4.30
2019,03,27,08,27,4.40
2019,03,27,08,28,4.40
2019,03,27,08,29,4.40
2019,03,27,08,30,4.50
2019,03,27,08,31,4.50
2019,03,27,08,32,4.50
2019,03,27,08,33,4.60
2019,03,27,08,34,4.60
2019,03,27,08,35,4.60
2019,03,27,08,36,4.70
2019,03,27,08,37,4.70
2019,03,27,08,38,4.70
2019,03,27,08,39,4.70
2019,03,27,08,40,4.70
2019,03,27,08,41,4.70
2019,03,27,08,42,4.80
2019,03,27,08,43,4.80
2019,03,27,08,44,4.80
2019,03,27,08,45,4.80
2019,03,27,08,46,4.90
2019,03,27,08,47,4.90
2019,03,27,08,48,4.90
2019,03,27,08,49,5.00
2019,03,27,08,50,5.00
2019,03,27,08,51,5.10
2019,03,27,08,52,5.10
2019,03,27,08,53,5.10
2019,03,27,08,54,5.10
2019,03,27,08,55,5.20
2019,03,27,08,56,5.20
2019,03,27,08,57,5.20
2019,03,27,08,58,5.20
2019,03,27,08,59,5.20
2019,03,27,09,00,5.30
2019,03,27,09,01,5.30
2019,03,27,09,02,5.30
2019,03,27,09,03,5.30
2019,03,27,09,04,5.40
2019,03,27,09,05,5.40
2019,03,27,09,06,5.50
2019,03,27,09,07,5.60
2019,03,27,09,08,5.60
2019,03,27,09,09,5.60
2019,03,27,09,10,5.70
2019,03,27,09,11,5.70
2019,03,27,09,12,5.70
2019,03,27,09,13,5.70
2019,03,27,09,14,5.80
2019,03,27,09,15,5.80
2019,03,27,09,16,5.80
2019,03,27,09,17,5.90
2019,03,27,09,18,6.00
2019,03,27,09,19,6.00
2019,03,27,09,20,6.10
2019,03,27,09,21,6.20
2019,03,27,09,22,6.20
2019,03,27,09,23,6.30
2019,03,27,09,24,6.30
2019,03,27,09,25,6.30
2019,03,27,09,26,6.40
2019,03,27,09,27,6.40
2019,03,27,09,28,6.40
2019,03,27,09,29,6.40
2019,03,27,09,30,6.40
2019,03,27,09,31,6.40
2019,03,27,09,32,6.50
2019,03,27,09,33,6.80
2019,03,27,09,34,6.80
2019,03,27,09,35,6.90
2019,03,27,09,36,7.00
2019,03,27,09,37,7.00
2019,03,27,09,38,7.10
2019,03,27,09,39,7.10
2019,03,27,09,40,7.20
2019,03,27,09,41,7.20
2019,03,27,09,42,7.20
2019,03,27,09,43,7.20
2019,03,27,09,44,7.30
2019,03,27,09,45,7.40
2019,03,27,09,46,7.50
2019,03,27,09,47,7.50
2019,03,27,09,48,7.60
2019,03,27,09,49,7.60
2019,03,27,09,50,7.70
2019,03,27,09,51,7.70
2019,03,27,09,52,7.80
2019,03,27,09,53,7.90
2019,03,27,09,54,7.90
2019,03,27,09,55,8.00
2019,03,27,09,56,8.10
2019,03,27,09,57,8.10
2019,03,27,09,58,8.10
2019,03,27,09,59,8.20
2019,03,27,10,00,8.20
2019,03,27,10,01,8.30
2019,03,27,10,02,8.40
2019,03,27,10,03,8.40
2019,03,27,10,04,8.50
2019,03,27,10,05,8.60
2019,03,27,10,06,8.60
2019,03,27,10,07,8.70
2019,03,27,10,08,8.70
2019,03,27,10,09,8.80
2019,03,27,10,10,8.80
2019,03,27,10,11,8.80
2019,03,27,10,12,8.90
2019,03,27,10,13,9.00
2019,03,27,10,14,9.10
2019,03,27,10,15,9.10
2019,03,27,10,16,9.20
2019,03,27,10,17,9.20
2019,03,27,10,18,9.30
2019,03,27,10,19,9.30
2019,03,27,10,20,9.30
2019,03,27,10,21,9.40
2019,03,27,10,22,9.40
2019,03,27,10,23,9.40
2019,03,27,10,24,9.40
2019,03,27,10,25,9.40
2019,03,27,10,26,9.50
2019,03,27,10,27,9.50
2019,03,27,10,28,9.60
2019,03,27,10,29,9.60
2019,03,27,10,30,9.70
2019,03,27,10,31,9.70
2019,03,27,10,32,9.80
2019,03,27,10,33,9.90
2019,03,27,10,34,9.90
2019,03,27,10,35,9.90
2019,03,27,10,36,10.00
2019,03,27,10,37,10.00
2019,03,27,10,38,10.00
2019,03,27,10,39,10.00
2019,03,27,10,40,10.10
2019,03,27,10,41,10.10
2019,03,27,10,42,10.10
2019,03,27,10,43,10.10
2019,03,27,10,44,10.20
2019,03,27,10,45,10.20
2019,03,27,10,46,10.30
2019,03,27,10,47,10.30
2019,03,27,10,48,10.30
2019,03,27,10,49,10.40
2019,03,27,10,50,10.40
2019,03,27,10,51,10.50
2019,03,27,10,52,10.50
2019,03,27,10,53,10.60
2019,03,27,10,54,10.60
2019,03,27,10,55,10.60
2019,03,27,10,56,10.70
2019,03,27,10,57,10.70
2019,03,27,10,58,10.70
2019,03,27,10,59,10.80
2019,03,27,11,00,10.80
2019,03,27,11,01,10.80
2019,03,27,11,02,10.80
2019,03,27,11,03,10.80
2019,03,27,11,04,10.80
2019,03,27,11,05,10.90
2019,03,27,11,06,10.90
2019,03,27,11,07,10.90
2019,03,27,11,08,11.00
2019,03,27,11,09,11.00
2019,03,27,11,10,11.00
2019,03,27,11,11,11.00
2019,03,27,11,12,11.00
2019,03,27,11,13,11.00
2019,03,27,11,14,11.00
2019,03,27,11,15,11.00
2019,03,27,11,16,11.00
2019,03,27,11,17,11.00
2019,03,27,11,18,11.10
2019,03,27,11,19,11.10
2019,03,27,11,20,11.10
2019,03,27,11,21,11.20
2019,03,27,11,22,11.20
2019,03,27,11,23,11.30
2019,03,27,11,24,11.30
2019,03,27,11,25,11.40
2019,03,27,11,26,11.40
2019,03,27,11,27,11.40
2019,03,27,11,28,11.40
2019,03,27,11,29,11.40
2019,03,27,11,30,11.40
2019,03,27,11,31,11.40
2019,03,27,11,32,11.30
2019,03,27,11,33,11.30
2019,03,27,11,34,11.30
2019,03,27,11,35,11.40
2019,03,27,11,36,11.30
2019,03,27,11,37,11.30
2019,03,27,11,38,11.40
2019,03,27,11,39,11.40
2019,03,27,11,40,11.40
2019,03,27,11,41,11.40
2019,03,27,11,42,11.40
2019,03,27,11,43,11.40
2019,03,27,11,44,11.50
2019,03,27,11,45,11.50
2019,03,27,11,46,11.60
2019,03,27,11,47,11.70
2019,03,27,11,48,11.80
2019,03,27,11,49,11.80
2019,03,27,11,50,11.90
2019,03,27,11,51,11.90
2019,03,27,11,52,12.00
2019,03,27,11,53,12.10
2019,03,27,11,54,12.10
2019,03,27,11,55,12.10
2019,03,27,11,56,12.10
2019,03,27,11,57,12.10
2019,03,27,11,58,12.10
2019,03,27,11,59,12.10
2019,03,27,12,00,12.10
2019,03,27,12,01,12.10
2019,03,27,12,02,12.20
2019,03,27,12,03,12.20
2019,03,27,12,04,12.30
2019,03,27,12,05,12.30
2019,03,27,12,06,12.30
2019,03,27,12,07,12.30
2019,03,27,12,08,12.30
2019,03,27,12,09,12.40
2019,03,27,12,10,12.50
2019,03,27,12,11,12.50
2019,03,27,12,12,12.50
2019,03,27,12,13,12.50
2019,03,27,12,14,12.50
2019,03,27,12,15,12.50
2019,03,27,12,16,12.50
2019,03,27,12,17,12.60
2019,03,27,12,18,12.60
2019,03,27,12,19,12.50
2019,03,27,12,20,12.50
2019,03,27,12,21,12.60
2019,03,27,12,22,12.60
2019,03,27,12,23,12.60
2019,03,27,12,24,12.60
2019,03,27,12,25,12.70
2019,03,27,12,26,12.80
2019,03,27,12,27,12.80
2019,03,27,12,28,12.80
2019,03,27,12,29,12.70
2019,03,27,12,30,12.70
2019,03,27,12,31,12.70
2019,03,27,12,32,12.70
2019,03,27,12,33,12.70
2019,03,27,12,34,12.70
2019,03,27,12,35,12.70
2019,03,27,12,36,12.60
2019,03,27,12,37,12.60
2019,03,27,12,38,12.60
2019,03,27,12,39,12.60
2019,03,27,12,40,12.60
2019,03,27,12,41,12.60
2019,03,27,12,42,12.60
2019,03,27,12,43,12.70
2019,03,27,12,44,12.70
2019,03,27,12,45,12.70
2019,03,27,12,46,12.70
2019,03,27,12,47,12.70
2019,03,27,12,48,12.80
2019,03,27,12,49,12.90
2019,03,27,12,50,13.00
2019,03,27,12,51,13.10
2019,03,27,12,52,13.10
2019,03,27,12,53,13.10
2019,03,27,12,54,13.10
2019,03,27,12,55,13.10
2019,03,27,12,56,13.10
2019,03,27,12,57,13.10
2019,03,27,12,58,13.10
2019,03,27,12,59,13.10
2019,03,27,13,00,13.20
2019,03,27,13,01,13.30
2019,03,27,13,02,13.40
2019,03,27,13,03,13.50
2019,03,27,13,04,13.60
2019,03,27,13,05,13.60
2019,03,27,13,06,13.60
2019,03,27,13,07,13.50
2019,03,27,13,08,13.40
2019,03,27,13,09,13.30
2019,03,27,13,10,13.30
2019,03,27,13,11,13.30
2019,03,27,13,12,13.30
2019,03,27,13,13,13.30
2019,03,27,13,14,13.40
2019,03,27,13,15,13.50
2019,03,27,13,16,13.60
2019,03,27,13,17,13.60
2019,03,27,13,18,13.70
2019,03,27,13,19,13.80
2019,03,27,13,20,13.90
2019,03,27,13,21,14.00
2019,03,27,13,22,14.10
2019,03,27,13,23,14.20
2019,03,27,13,24,14.30
2019,03,27,13,25,14.40
2019,03,27,13,26,14.50
2019,03,27,13,27,14.70
2019,03,27,13,28,14.80
2019,03,27,13,29,14.90
2019,03,27,13,30,15.00
2019,03,27,13,31,15.00
2019,03,27,13,32,15.00
2019,03,27,13,33,14.90
2019,03,27,13,34,14.60
2019,03,27,13,35,14.30
2019,03,27,13,36,14.00
2019,03,27,13,37,13.80
2019,03,27,13,38,13.60
2019,03,27,13,39,13.60
2019,03,27,13,40,13.60
2019,03,27,13,41,13.70
2019,03,27,13,42,13.80
2019,03,27,13,43,13.80
2019,03,27,13,44,13.90
2019,03,27,13,45,13.90
2019,03,27,13,46,13.90
2019,03,27,13,47,13.90
2019,03,27,13,48,13.90
2019,03,27,13,49,14.00
2019,03,27,13,50,14.00
2019,03,27,13,51,14.10
2019,03,27,13,52,14.20
2019,03,27,13,53,14.20
2019,03,27,13,54,14.30
2019,03,27,13,55,14.40
2019,03,27,13,56,14.40
2019,03,27,13,57,14.40
2019,03,27,13,58,14.50
2019,03,27,13,59,14.60
2019,03,27,14,00,14.80
2019,03,27,14,01,15.00
2019,03,27,14,02,15.00
2019,03,27,14,03,15.00
2019,03,27,14,04,15.00
2019,03,27,14,05,14.90
2019,03,27,14,06,14.80
2019,03,27,14,07,14.80
2019,03,27,14,08,14.80
2019,03,27,14,09,14.70
2019,03,27,14,10,14.70
2019,03,27,14,11,14.70
2019,03,27,14,12,14.80
2019,03,27,14,13,14.80
2019,03,27,14,14,14.80
2019,03,27,14,15,14.90
2019,03,27,14,16,15.00
2019,03,27,14,17,14.90
2019,03,27,14,18,14.90
2019,03,27,14,19,14.80
2019,03,27,14,20,14.80
2019,03,27,14,21,14.90
2019,03,27,14,22,15.00
2019,03,27,14,23,15.00
2019,03,27,14,24,15.00
2019,03,27,14,25,15.10
2019,03,27,14,26,15.20
2019,03,27,14,27,15.30
2019,03,27,14,28,15.30
2019,03,27,14,29,15.30
2019,03,27,14,30,15.40
2019,03,27,14,31,15.40
2019,03,27,14,32,15.50
2019,03,27,14,33,15.60
2019,03,27,14,34,15.70
2019,03,27,14,35,15.70
2019,03,27,14,36,15.70
2019,03,27,14,37,15.50
2019,03,27,14,38,15.40
2019,03,27,14,39,15.30
2019,03,27,14,40,15.30
2019,03,27,14,41,15.30
2019,03,27,14,42,15.40
2019,03,27,14,43,15.40
2019,03,27,14,44,15.40
2019,03,27,14,45,15.40
2019,03,27,14,46,15.40
2019,03,27,14,47,15.40
2019,03,27,14,48,15.40
2019,03,27,14,49,15.40
2019,03,27,14,50,15.50
2019,03,27,14,51,15.50
2019,03,27,14,52,15.50
2019,03,27,14,53,15.40
2019,03,27,14,54,15.30
2019,03,27,14,55,15.10
2019,03,27,14,56,15.00
2019,03,27,14,57,15.00
2019,03,27,14,58,15.00
2019,03,27,14,59,15.00
2019,03,27,15,00,15.00
2019,03,27,15,01,15.00
2019,03,27,15,02,15.00
2019,03,27,15,03,15.00
2019,03,27,15,04,15.00
2019,03,27,15,05,15.00
2019,03,27,15,06,15.00
2019,03,27,15,07,15.00
2019,03,27,15,08,15.20
2019,03,27,15,09,15.20
2019,03,27,15,10,15.20
2019,03,27,15,11,15.10
2019,03,27,15,12,15.00
2019,03,27,15,13,15.00
2019,03,27,15,14,15.00
2019,03,27,15,15,15.00
2019,03,27,15,16,15.00
2019,03,27,15,17,15.00
2019,03,27,15,18,15.00
2019,03,27,15,19,15.00
2019,03,27,15,20,15.00
2019,03,27,15,21,15.10
2019,03,27,15,22,15.20
2019,03,27,15,23,15.40
2019,03,27,15,24,15.50
2019,03,27,15,25,15.70
2019,03,27,15,26,15.70
2019,03,27,15,27,15.80
2019,03,27,15,28,15.70
2019,03,27,15,29,15.80
2019,03,27,15,30,15.70
2019,03,27,15,31,15.60
2019,03,27,15,32,15.60
2019,03,27,15,33,15.60
2019,03,27,15,34,15.60
2019,03,27,15,35,15.70
2019,03,27,15,36,15.80
2019,03,27,15,37,15.80
2019,03,27,15,38,15.70
2019,03,27,15,39,15.60
2019,03,27,15,40,15.50
2019,03,27,15,41,15.40
2019,03,27,15,42,15.30
2019,03,27,15,43,15.20
2019,03,27,15,44,15.20
2019,03,27,15,45,15.10
2019,03,27,15,46,15.10
2019,03,27,15,47,15.20
2019,03,27,15,48,15.20
2019,03,27,15,49,15.30
2019,03,27,15,50,15.40
2019,03,27,15,51,15.50
2019,03,27,15,52,15.60
2019,03,27,15,53,15.70
2019,03,27,15,54,15.80
2019,03,27,15,55,15.80
2019,03,27,15,56,15.90
2019,03,27,15,57,16.00
2019,03,27,15,58,16.00
2019,03,27,15,59,16.10
2019,03,27,16,00,16.10
2019,03,27,16,01,16.10
2019,03,27,16,02,16.10
2019,03,27,16,03,16.10
2019,03,27,16,04,16.20
2019,03,27,16,05,16.30
2019,03,27,16,06,16.20
2019,03,27,16,07,16.20
2019,03,27,16,08,16.00
2019,03,27,16,09,15.90
2019,03,27,16,10,15.70
2019,03,27,16,11,15.60
2019,03,27,16,12,15.60
2019,03,27,16,13,15.60
2019,03,27,16,14,15.60
2019,03,27,16,15,15.70
2019,03,27,16,16,15.70
2019,03,27,16,17,15.80
2019,03,27,16,18,15.90
2019,03,27,16,19,15.90
2019,03,27,16,20,15.90
2019,03,27,16,21,16.00
2019,03,27,16,22,16.10
2019,03,27,16,23,16.30
2019,03,27,16,24,16.40
2019,03,27,16,25,16.50
2019,03,27,16,26,16.60
2019,03,27,16,27,16.60
2019,03,27,16,28,16.70
2019,03,27,16,29,16.70
2019,03,27,16,30,16.50
2019,03,27,16,31,16.30
2019,03,27,16,32,16.10
2019,03,27,16,33,15.90
2019,03,27,16,34,15.90
2019,03,27,16,35,15.80
2019,03,27,16,36,15.80
2019,03,27,16,37,15.90
2019,03,27,16,38,15.80
2019,03,27,16,39,15.90
2019,03,27,16,40,15.90
2019,03,27,16,41,16.00
2019,03,27,16,42,16.00
2019,03,27,16,43,16.10
2019,03,27,16,44,16.20
2019,03,27,16,45,16.20
2019,03,27,16,46,16.20
2019,03,27,16,47,16.20
2019,03,27,16,48,16.20
2019,03,27,16,49,16.10
2019,03,27,16,50,16.10
2019,03,27,16,51,16.20
2019,03,27,16,52,16.20
2019,03,27,16,53,16.20
2019,03,27,16,54,16.20
2019,03,27,16,55,16.10
2019,03,27,16,56,16.10
2019,03,27,16,57,16.10
2019,03,27,16,58,16.10
2019,03,27,16,59,16.10
2019,03,27,17,00,16.00
2019,03,27,17,01,15.90
2019,03,27,17,02,15.90
2019,03,27,17,03,15.90
2019,03,27,17,04,15.80
2019,03,27,17,05,15.80
2019,03,27,17,06,15.80
2019,03,27,17,07,15.80
2019,03,27,17,08,15.80
2019,03,27,17,09,15.70
2019,03,27,17,10,15.70
2019,03,27,17,11,15.70
2019,03,27,17,12,15.70
2019,03,27,17,13,15.70
2019,03,27,17,14,15.70
2019,03,27,17,15,15.70
2019,03,27,17,16,15.70
2019,03,27,17,17,15.70
2019,03,27,17,18,15.70
2019,03,27,17,19,15.60
2019,03,27,17,20,15.60
2019,03,27,17,21,15.60
2019,03,27,17,22,15.60
2019,03,27,17,23,15.60
2019,03,27,17,24,15.70
2019,03,27,17,25,15.70
2019,03,27,17,26,15.70
2019,03,27,17,27,15.80
2019,03,27,17,28,15.80
2019,03,27,17,29,15.90
2019,03,27,17,30,15.80
2019,03,27,17,31,15.80
2019,03,27,17,32,15.80
2019,03,27,17,33,15.80
2019,03,27,17,34,15.80
2019,03,27,17,35,15.80
2019,03,27,17,36,15.80
2019,03,27,17,37,15.70
2019,03,27,17,38,15.70
2019,03,27,17,39,15.60
2019,03,27,17,40,15.50
2019,03,27,17,41,15.50
2019,03,27,17,42,15.50
2019,03,27,17,43,15.50
2019,03,27,17,44,15.60
2019,03,27,17,45,15.60
2019,03,27,17,46,15.70
2019,03,27,17,47,15.70
2019,03,27,17,48,15.70
2019,03,27,17,49,15.70